TimeCDT,TemperatureF,Dew PointF,Humidity,Sea Level PressureIn,VisibilityMPH,Wind Direction,Wind SpeedMPH,Gust SpeedMPH,PrecipitationIn,Events,Conditions,WindDirDegrees,DateUTC
12:54 AM,68.0,64.9,90,29.96,10.0,SSE,11.5,-,0.00,,Mostly Cloudy,160,2013-06-16 05:54:00
1:02 AM,66.2,64.4,94,29.99,10.0,South,10.4,-,N/A,,Mostly Cloudy,170,2013-06-16 06:02:00
1:35 AM,66.2,64.4,94,29.98,10.0,South,5.8,-,N/A,,Mostly Cloudy,190,2013-06-16 06:35:00
1:54 AM,66.9,64.9,93,29.95,10.0,SSW,6.9,-,N/A,,Mostly Cloudy,200,2013-06-16 06:54:00
2:10 AM,66.2,64.4,94,29.97,10.0,SSW,9.2,-,N/A,,Overcast,200,2013-06-16 07:10:00
2:54 AM,66.9,64.9,93,29.91,10.0,South,10.4,19.6,0.01,Rain,Light Rain,190,2013-06-16 07:54:00
3:54 AM,66.9,64.0,90,29.93,8.0,South,5.8,-,0.00,,Clear,190,2013-06-16 08:54:00
4:54 AM,66.9,64.0,90,29.94,10.0,SSW,5.8,-,N/A,,Mostly Cloudy,200,2013-06-16 09:54:00
5:54 AM,66.9,64.9,93,29.95,10.0,SSW,5.8,-,N/A,,Overcast,210,2013-06-16 10:54:00
6:54 AM,68.0,66.0,93,29.96,10.0,SSW,6.9,-,N/A,,Overcast,210,2013-06-16 11:54:00
7:54 AM,70.0,66.0,87,29.97,10.0,SSW,8.1,-,N/A,,Overcast,210,2013-06-16 12:54:00
8:54 AM,73.9,66.9,79,29.97,10.0,SW,9.2,-,N/A,,Clear,230,2013-06-16 13:54:00
9:54 AM,75.9,66.9,74,29.97,10.0,SW,8.1,-,N/A,,Partly Cloudy,230,2013-06-16 14:54:00
10:17 AM,75.2,66.2,73,29.98,10.0,SW,6.9,-,N/A,,Mostly Cloudy,230,2013-06-16 15:17:00
10:54 AM,75.9,66.9,74,29.96,10.0,WSW,3.5,-,N/A,,Overcast,240,2013-06-16 15:54:00
11:28 AM,75.2,66.2,73,29.97,10.0,WSW,5.8,-,N/A,,Overcast,240,2013-06-16 16:28:00
11:54 AM,75.9,66.0,71,29.96,10.0,WSW,3.5,-,N/A,,Overcast,240,2013-06-16 16:54:00
12:54 PM,78.1,68.0,71,29.95,10.0,Calm,Calm,-,N/A,,Overcast,0,2013-06-16 17:54:00
1:54 PM,78.1,66.9,68,29.95,10.0,SSW,3.5,-,N/A,,Overcast,200,2013-06-16 18:54:00
2:43 PM,80.6,68.0,65,29.96,10.0,West,6.9,-,N/A,,Mostly Cloudy,270,2013-06-16 19:43:00
2:51 PM,80.6,69.8,70,29.96,10.0,SW,3.5,-,N/A,,Scattered Clouds,220,2013-06-16 19:51:00
2:54 PM,80.1,69.1,69,29.95,10.0,WSW,4.6,-,N/A,,Scattered Clouds,240,2013-06-16 19:54:00
3:54 PM,80.1,69.1,69,29.94,10.0,SW,5.8,-,N/A,,Overcast,230,2013-06-16 20:54:00
4:54 PM,80.1,70.0,71,29.94,10.0,WSW,5.8,-,N/A,,Mostly Cloudy,250,2013-06-16 21:54:00
5:54 PM,80.1,70.0,71,29.92,10.0,South,3.5,-,N/A,,Scattered Clouds,190,2013-06-16 22:54:00
6:54 PM,81.0,68.0,65,29.92,10.0,NW,4.6,-,N/A,,Clear,320,2013-06-16 23:54:00
7:54 PM,80.1,68.0,67,29.90,10.0,Calm,Calm,-,N/A,,Clear,0,2013-06-17 00:54:00
8:54 PM,77.0,69.1,76,29.91,10.0,Calm,Calm,-,N/A,,Clear,0,2013-06-17 01:54:00
9:54 PM,73.0,69.1,87,29.95,10.0,Calm,Calm,-,N/A,,Clear,0,2013-06-17 02:54:00
10:54 PM,71.1,68.0,90,29.95,9.0,Calm,Calm,-,N/A,,Clear,0,2013-06-17 03:54:00
11:54 PM,73.0,68.0,84,29.97,10.0,Calm,Calm,-,N/A,,Mostly Cloudy,0,2013-06-17 04:54:00